This demonstration page uses our WeatherBlox Daily Observations layout. Learn more.

Left ArrowRight Arrow

41.12389, -100.76542

Hourly Observations for September 18, 2020

Temp ( °F °C ) Dew Point ( °F °C ) Humidity (%) Winds ( mph kmh ) Pressure ( in mb ) Visibility ( mi km ) Precip ( " mm )
12:53 am 00:53 Clear 54 12.2 51 10.6 90 90 NNW 5 7 30.17 1022 9 14 0.00 0.00
1:53 am 01:53 Clear 57 13.9 51 10.6 81 81 ENE 3 6 30.17 1022 10 16 0.00 0.00
2:53 am 02:53 Clear 55 12.8 50 10 83 83 ENE 5 7 30.17 1022 9 14 0.00 0.00
3:53 am 03:53 Clear 52 11.1 49 9.4 89 89 ESE 5 7 30.17 1022 8 13 0.00 0.00
4:53 am 04:53 Clear 53 11.7 50 10 89 89 E 3 6 30.17 1022 9 14 0.00 0.00
5:53 am 05:53 Clear 51 10.6 48 8.9 89 89 ESE 5 7 30.18 1022 7 11 0.00 0.00
6:53 am 06:53 Clear with Mist and Fog 50 10 47 8.3 89 89 ENE 6 9 30.20 1023 6 10 0.00 0.00
7:53 am 07:53 Sunny with Mist and Fog 49 9.4 46 7.8 90 90 E 6 9 30.23 1024 5 8 0.00 0.00
8:53 am 08:53 Sunny 53 11.7 50 10 89 89 ESE 6 9 30.25 1024 10 16 0.00 0.00
9:53 am 09:53 Mostly Cloudy 57 13.9 52 11.1 83 83 ESE 10 17 30.24 1024 10 16 0.00 0.00
10:19 am 10:19 Cloudy 59 15 52 11.1 78 78 ESE 7 11 30.21 1023 10 16 0.00 0.00
10:53 am 10:53 Mostly Cloudy 62 16.7 52 11.1 70 70 ESE 10 17 30.24 1024 10 16 0.00 0.00
11:03 am 11:03 Partly Cloudy 62 16.7 52 11.1 70 70 SE 8 13 30.19 1022 10 16 0.00 0.00
11:53 am 11:53 Sunny 67 19.4 54 12.2 63 63 ESE 9 15 30.22 1023 10 16 0.00 0.00
12:53 pm 12:53 Sunny 74 23.3 55 12.8 52 52 SE 14 22 30.19 1022 10 16 0.00 0.00
1:53 pm 13:53 Sunny 77 25 55 12.8 47 47 SE 13 20 30.16 1021 10 16 0.00 0.00
2:53 pm 14:53 Sunny 80 26.7 54 12.2 41 41 SSE 10 17 30.12 1020 10 16 0.00 0.00
3:53 pm 15:53 Sunny 81 27.2 55 12.8 41 41 SE 14 22 30.09 1019 10 16 0.00 0.00
4:53 pm 16:53 Sunny 81 27.2 55 12.8 41 41 SSE 16 26 30.08 1019 10 16 0.00 0.00
5:53 pm 17:53 Sunny 80 26.7 55 12.8 42 42 SE 13 20 30.06 1018 10 16 0.00 0.00
6:53 pm 18:53 Sunny 77 25 55 12.8 47 47 SE 15 24 30.06 1018 10 16 0.00 0.00
7:53 pm 19:53 Clear 72 22.2 55 12.8 55 55 SE 10 17 30.08 1019 10 16 0.00 0.00
8:53 pm 20:53 Clear 68 20 54 12.2 61 61 SE 13 20 30.09 1019 10 16 0.00 0.00
9:53 pm 21:53 Clear 67 19.4 53 11.7 61 61 SE 12 19 30.10 1019 10 16 0.00 0.00
10:53 pm 22:53 Clear 65 18.3 52 11.1 63 63 SE 10 17 30.10 1019 10 16 0.00 0.00
11:53 pm 23:53 Clear 64 17.8 50 10 60 60 SE 15 24 30.09 1019 10 16 0.00 0.00

Powered by AerisWeather